Flag for U.S.A. Weather past 2 weeks in Tucson, Arizona, U.S.A.

Now
84 °F

Clear.


Feels Like: 86 °F
Forecast: 71 / 90 °F
Wind: 9 mph from Northwest

Location: Davis-Monthan Air Force Base

Current Time: Sep 20, 2014 at 7:52:49 PM

Latest Report: Sep 20, 2014 at 6:58 PM


Visibility: 10 mi

Pressure: 29.81 "Hg

Humidity: 55%

Dew point: 66 °F

Location of TucsonLocation

Historic Weather in Tucson — Graph

°F

Tucson temperature yesterday

Maximum temperature yesterday: 87 °F (at 2:58 PM)
Minimum temperature yesterday: 73 °F (at 3:58 AM)
Average temperature yesterday: 79 °F

Past Weeks' High & Low Weather Summary

 TemperatureHumidityPressure
High97 °F (Sep 12, 2:58 PM)100% (Sep 8, 10:58 AM)30.03 "Hg (Sep 8, 10:58 AM)
Low67 °F (Sep 10, 5:58 AM)21% (Sep 11, 1:58 PM)29.67 "Hg (Sep 12, 3:58 PM)
Average80 °F60%29.82 "Hg
* Reported Sep 5 5:58 PM — Sep 20 5:58 PM, Tucson, Weather by CustomWeather, © 2014

Note: Actual official high and low records may vary slightly from our data, if they occured in-between our weather recording intervals... More about our weather records

Advertising

Tucson weather history for previous 24 hours

 ConditionsComfort  
Time TempWeatherWind HumidityBarometerVisibility
5:58 PM
Sep 20
86 °FSunny.6 mph48%29.79 "Hg10 mi
4:58 PM88 °FSunny.3 mph38%29.78 "Hg10 mi
3:58 PM87 °FSunny.1 mph43%29.78 "Hg10 mi
2:58 PM86 °FSunny.5 mph50%29.80 "Hg10 mi
1:58 PM86 °FSunny.2 mph52%29.82 "Hg10 mi
12:58 PM84 °FPassing clouds.8 mph57%29.85 "Hg10 mi
11:58 AM85 °FScattered clouds.9 mph52%29.86 "Hg10 mi
10:58 AM84 °FPassing clouds.10 mph56%29.88 "Hg10 mi
5:58 AM72 °FPassing clouds.5 mph87%29.84 "Hg10 mi
4:58 AM72 °FPassing clouds.3 mph85%29.83 "Hg10 mi
3:58 AM73 °FPassing clouds.2 mph85%29.81 "Hg10 mi
2:58 AM73 °FClear.3 mph84%29.81 "Hg10 mi
1:58 AM74 °FClear.5 mph81%29.81 "Hg10 mi
12:58 AM75 °FClear.2 mph79%29.81 "Hg10 mi
11:58 PM
Sep 19
76 °FClear.5 mph77%29.82 "Hg10 mi
10:58 PM77 °FClear.6 mph75%29.81 "Hg10 mi
9:58 PM77 °FClear.6 mph75%29.81 "Hg10 mi
8:58 PM78 °FClear.6 mph71%29.79 "Hg10 mi
7:58 PM79 °FClear.5 mph68%29.77 "Hg10 mi
Weather by CustomWeather, © 2014

See weather overviewHow to use our weather pages